Content
SEND FEEDBACK

Daily
Averages
Monthly
Summary
United States of America

UPI, GUAM


Home > North America > United States > Guam
Elevation: 16 meters     Latitude: 13 34N     Longitude: 144 55E

WEATHER
 
SELECT A DAY
Number of Records: 209,044;   Date Range: 1/1/95 - 7/29/14
 
SHARE

PRINT THIS DATA

[ ← Previous Day ]
WEATHER ALMANAC - 6 MAY, 2013
[ Next Day → ]
[ °F ]   °C
Weather ElementAverageHighLow
Temperature29.8 °C32.2 °C (1:54 pm)26.7 °C (11:54 pm)
Dewpoint23.1 °C25 °C (9:18 pm)21.7 °C (3:54 pm)
Humidity68 %85 % (9:54 pm)55 % (2:50 pm)
Barometer1010.8 hPa1012.9 hPa (9:18 pm)1008.8 hPa (4:54 pm)
Wind Speed18.2 km/h27.8 km/h (1:54 pm)
Wind Gust40.7 km/h (2:28 pm)
Weather ElementAverage
Visibility15.8 km
Wind DirectionENE (78.2 °)

Weather ElementTotal
Precipitation6.35 mm
Cooling Degree Days11.2 (Base 18.3)
Growing Degree Days19.5 (Base 10)
Averaged from 33 records on 6 May, 2013
WEATHER CONDITIONS BREAKOUT
WIND DIRECTION BREAKOUT
WEATHER BY HOUR - 6 MAY, 2013
[ °F ]   °C
Local TimeTemperatureDewpointHumidityBarometerVisibilityWind DirectionWind SpeedGust SpeedPrecipitationEventsConditions
1:54 AM28.3 °C22.8 °C72 %1011.5 hPa16.1 kmEast (90°)13 km/hPartly Cloudy
2:54 AM27.8 °C22.8 °C74 %1011.2 hPa16.1 kmEast (90°)14.8 km/hClear
3:54 AM27.8 °C22.8 °C74 %1010.8 hPa16.1 kmEast (90°)13 km/hClear
4:54 AM27.8 °C22.8 °C74 %1011.2 hPa16.1 kmEast (90°)13 km/hClear
5:54 AM27.8 °C22.8 °C74 %1011.2 hPa16.1 kmEast (90°)16.7 km/hClear
6:54 AM28.3 °C22.8 °C72 %1011.2 hPa16.1 kmEast (90°)13 km/hClear
7:54 AM29.4 °C22.8 °C67 %1011.9 hPa16.1 kmEast (80°)20.4 km/hPartly Cloudy
8:54 AM30.6 °C22.2 °C61 %1011.5 hPa16.1 kmEast (100°)24.1 km/hPartly Cloudy
9:54 AM31.1 °C22.8 °C61 %1011.5 hPa16.1 kmEast (90°)20.4 km/h35.2 km/hPartly Cloudy
10:54 AM31.7 °C23.3 °C61 %1011.2 hPa16.1 kmEast (100°)22.2 km/h33.3 km/hScattered Clouds
11:54 AM31.7 °C23.3 °C61 %1010.5 hPa16.1 kmEast (90°)22.2 km/h35.2 km/hMostly Cloudy
12:40 PM31 °C23 °C62 %1011.2 hPa16.1 kmEast (80°)16.7 km/h29.6 km/hMostly Cloudy
12:54 PM31.7 °C22.8 °C59 %1009.8 hPa16.1 kmEast (80°)20.4 km/hOvercast
1:54 PM32.2 °C22.8 °C57 %1009.5 hPa16.1 kmENE (70°)27.8 km/hMostly Cloudy
2:18 PM32 °C23 °C59 %1010.2 hPa16.1 kmENE (70°)24.1 km/hMostly Cloudy
2:28 PM32 °C23 °C59 %1010.2 hPa16.1 kmEast (90°)25.9 km/h40.7 km/hMostly Cloudy
2:50 PM32 °C22 °C55 %1010.2 hPa16.1 kmENE (70°)22.2 km/hScattered Clouds
2:54 PM32.2 °C22.2 °C55 %1009.1 hPa16.1 kmEast (90°)22.2 km/hScattered Clouds
3:22 PM32 °C22 °C55 %1010.2 hPa16.1 kmEast (90°)22.2 km/hMostly Cloudy
3:30 PM32 °C22 °C55 %1009.8 hPa16.1 kmEast (80°)20.4 km/hScattered Clouds
3:54 PM31.7 °C21.7 °C55 %1009.1 hPa16.1 kmEast (80°)24.1 km/h35.2 km/hScattered Clouds
4:54 PM31.1 °C21.7 °C57 %1008.8 hPa16.1 kmEast (80°)22.2 km/hPartly Cloudy
5:54 PM30.6 °C22.8 °C63 %1009.5 hPa16.1 kmENE (70°)20.4 km/hPartly Cloudy
6:54 PM29.4 °C23.3 °C69 %1010.2 hPa16.1 kmENE (70°)14.8 km/hPartly Cloudy
7:54 PM28.9 °C23.9 °C74 %1011.2 hPa16.1 kmEast (80°)11.1 km/hScattered Clouds
8:54 PM28.9 °C23.9 °C74 %1011.5 hPa16.1 kmENE (60°)11.1 km/hMostly Cloudy
9:18 PM28 °C25 °C84 %1012.9 hPa8 kmNE (50°)22.2 km/h0.25 mmRainRain
9:25 PM28 °C24 °C79 %1012.9 hPa11.3 kmEast (80°)16.7 km/h0.51 mmRainLight Rain
9:54 PM27.8 °C25 °C85 %1012.2 hPa16.1 kmNE (50°)11.1 km/h1.02 mmMostly Cloudy
10:54 PM27.8 °C25 °C85 %1012.2 hPa16.1 kmENE (60°)11.1 km/hScattered Clouds
11:34 PM28 °C25 °C84 %1012.9 hPa16.1 kmENE (70°)16.7 km/h1.52 mmOvercast
11:50 PM27 °C24 °C84 %1012.9 hPa16.1 kmENE (60°)13 km/h1.52 mmOvercast
11:54 PM26.7 °C23.9 °C85 %1011.9 hPa16.1 kmNE (50°)11.1 km/h1.52 mmOvercast
Hourly data recorded from PGUM, located 0 kilometers away from Upi, Guam







STORIES FROM OUR PARTNERS